Change the Weather History Date:

Thursday, December 13, 2012

  Actual Average Record
Temperature  
Mean Temperature 28 °F 22 °F  
Max Temperature 35 °F 31 °F 58 °F (1924)
Min Temperature 20 °F 12 °F -22 °F (1919)
Degree Days  
Heating Degree Days 37 43  
Month to date heating degree days 415 542  
Since 1 July heating degree days 2093 2424  
Cooling Degree Days 0 0  
Month to date cooling degree days 0 0  
Year to date cooling degree days 531 406  
Moisture  
Dew Point 19 °F    
Average Humidity 72    
Maximum Humidity 92    
Minimum Humidity 52    
Precipitation  
Precipitation T in 0.01 in 0.48 in (1917)
Month to date precipitation 0.47 0.18  
Year to date precipitation 9.37 11.00  
Snow  
Snow 0.00 in 0.20 in 9.80 in (1991)
Month to date snowfall 3.5 3.1  
Since 1 July snowfall 20.5 11.9  
Snow Depth 1.00 in    
Sea Level Pressure  
Sea Level Pressure 29.96 in    
Wind  
Wind Speed 5 mph (SW)    
Max Wind Speed 16 mph    
Max Gust Speed 18 mph    
Visibility 10 miles    
Events      
T = Trace of Precipitation, MM = Missing Value Source: NWS Daily Summary

Daily Weather History Graph

Daily Weather History Graph

Search for Another Location

Airport or City:

Trip Planner

Search our weather history database for the weather conditions in past years. The results will help you decide how hot, cold, wet, or windy it might be!

Date:

Astronomy

Dec. 13, 2012 Rise Set
Actual Time 8:04 AM MST 4:40 PM MST
Civil Twilight 7:29 AM MST 5:15 PM MST
Nautical Twilight 6:50 AM MST 5:54 PM MST
Astronomical Twilight 6:14 AM MST 6:30 PM MST
Moon 8:15 AM MST (12/13) 5:28 PM MST (12/13)
Length of Visible Light 9h 46m
Length of Day
8h 36m
New Moon, 0% of the Moon is Illuminated
Dec 13
New Moon
Dec 19
First Quarter
Dec 28
Full
Jan 4
Last Quarter
Jan 11
New

Hourly Weather History & Observations

Time (MST) Temp. Windchill Dew Point Humidity Pressure Visibility Wind Dir Wind Speed Gust Speed Precip Events Conditions
12:53 AM 30.0 °F - 27.0 °F 88% 29.94 in 10.0 mi Calm Calm - N/A   Overcast
1:53 AM 28.0 °F 24.2 °F 26.1 °F 92% 29.96 in 9.0 mi West 3.5 mph - N/A   Overcast
2:53 AM 28.9 °F - 27.0 °F 92% 29.97 in 8.0 mi Calm Calm - N/A   Overcast
3:53 AM 30.0 °F 26.5 °F 24.1 °F 79% 29.97 in 10.0 mi West 3.5 mph - N/A   Mostly Cloudy
4:53 AM 30.0 °F 19.5 °F 23.0 °F 75% 29.96 in 10.0 mi NW 13.8 mph - 0.00 in   Mostly Cloudy
5:53 AM 26.1 °F - 23.0 °F 88% 30.01 in 10.0 mi Calm Calm - N/A   Overcast
6:53 AM 27.0 °F 21.6 °F 21.9 °F 81% 30.02 in 10.0 mi South 4.6 mph - N/A   Partly Cloudy
7:53 AM 30.0 °F 22.4 °F 19.9 °F 66% 30.02 in 10.0 mi SW 8.1 mph - N/A   Clear
8:53 AM 30.0 °F 21.7 °F 19.0 °F 64% 30.03 in 10.0 mi WSW 9.2 mph - N/A   Clear
9:53 AM 32.0 °F 24.8 °F 19.0 °F 59% 30.02 in 10.0 mi SSW 8.1 mph - N/A   Scattered Clouds
10:53 AM 33.1 °F 26.9 °F 19.0 °F 56% 30.02 in 10.0 mi WNW 6.9 mph - N/A   Clear
11:53 AM 34.0 °F 27.2 °F 19.9 °F 56% 29.99 in 10.0 mi West 8.1 mph - N/A   Clear
12:53 PM 35.1 °F 29.3 °F 19.0 °F 52% 29.96 in 10.0 mi West 6.9 mph - N/A   Clear
1:53 PM 33.1 °F 26.9 °F 19.9 °F 59% 29.96 in 10.0 mi SE 6.9 mph - N/A   Clear
2:53 PM 32.0 °F 24.8 °F 19.9 °F 61% 29.94 in 10.0 mi SE 8.1 mph - N/A   Clear
5:53 PM 26.6 °F 22.6 °F 17.6 °F 69% 29.79 in 10.0 mi WSW 3.5 mph - N/A   Clear
6:53 PM 21.9 °F 17.2 °F 15.1 °F 75% 29.96 in 10.0 mi South 3.5 mph - N/A   Clear
7:53 PM 23.0 °F - 15.1 °F 72% 29.95 in 10.0 mi Calm Calm - N/A   Clear
8:53 PM 21.9 °F - 15.1 °F 75% 29.95 in 10.0 mi Calm Calm - N/A   Clear
9:53 PM 21.9 °F 15.7 °F 14.0 °F 72% 29.95 in 10.0 mi SW 4.6 mph - N/A   Clear
10:53 PM 19.4 °F 12.8 °F 12.2 °F 74% 29.78 in 10.0 mi South 4.6 mph - N/A   Clear
11:53 PM 19.9 °F 14.9 °F 14.0 °F 78% 29.94 in 10.0 mi SSW 3.5 mph - N/A   Clear